This demonstration page uses our WeatherBlox Daily Observations layout. Learn more.

Left ArrowRight Arrow

Hourly Observations for January 5, 2020

Temp ( °F °C ) Dew Point ( °F °C ) Humidity (%) Winds ( mph kmh ) Pressure ( in mb ) Visibility ( mi km ) Precip ( " mm )
12:53 am 00:53 Clear 38 3.3 30 -1.1 73 73 SW 8 13 29.96 1015 10 16 0.00 0.00
1:53 am 01:53 Clear 41 5 29 -1.7 62 62 W 15 24 29.98 1015 10 16 0.00 0.00
2:53 am 02:53 Clear 40 4.4 29 -1.7 65 65 WNW 14 22 30.01 1016 10 16 0.00 0.00
3:53 am 03:53 Clear 43 6.1 30 -1.1 60 60 NW 20 31 30.06 1018 10 16 0.00 0.00
4:53 am 04:53 Clear 42 5.6 31 -0.6 65 65 NNW 18 30 30.11 1020 10 16 0.00 0.00
5:53 am 05:53 Clear 40 4.4 30 -1.1 68 68 NNW 15 24 30.16 1022 10 16 0.00 0.00
6:53 am 06:53 Clear 39 3.9 28 -2.2 65 65 NNW 17 28 30.23 1024 10 16 0.00 0.00
7:53 am 07:53 Clear 38 3.3 24 -4.4 57 57 NNW 13 20 30.26 1025 10 16 0.00 0.00
8:53 am 08:53 Sunny 38 3.3 22 -5.6 52 52 NNW 16 26 30.29 1026 10 16 0.00 0.00
9:53 am 09:53 Sunny 40 4.4 23 -5 51 51 NW 14 22 30.32 1027 10 16 0.00 0.00
10:53 am 10:53 Sunny 41 5 23 -5 49 49 NNW 20 31 30.35 1028 10 16 0.00 0.00
11:53 am 11:53 Sunny 42 5.6 24 -4.4 49 49 NNW 17 28 30.34 1027 10 16 0.00 0.00
12:53 pm 12:53 Sunny 43 6.1 24 -4.4 47 47 NNW 17 28 30.34 1028 10 16 0.00 0.00
1:53 pm 13:53 Sunny 44 6.7 23 -5 43 43 N 15 24 30.31 1026 10 16 0.00 0.00
2:53 pm 14:53 Sunny 43 6.1 23 -5 45 45 NNW 13 20 30.32 1027 10 16 0.00 0.00
3:53 pm 15:53 Sunny 42 5.6 24 -4.4 49 49 NNW 9 15 30.31 1026 10 16 0.00 0.00
4:53 pm 16:53 Sunny 39 3.9 25 -3.9 57 57 NW 3 6 30.30 1026 10 16 0.00 0.00
5:53 pm 17:53 Clear 36 2.2 25 -3.9 64 64 WSW 5 7 30.30 1026 10 16 0.00 0.00
6:53 pm 18:53 Clear 34 1.1 25 -3.9 70 70 W 3 6 30.30 1026 10 16 0.00 0.00
7:53 pm 19:53 Clear 32 0 24 -4.4 73 73 WSW 5 7 30.31 1026 10 16 0.00 0.00
8:53 pm 20:53 Clear 31 -0.6 24 -4.4 76 76 W 3 6 30.30 1026 10 16 0.00 0.00
9:53 pm 21:53 Clear 30 -1.1 23 -5 75 75 WSW 3 6 30.29 1026 10 16 0.00 0.00
10:53 pm 22:53 Clear 27 -2.8 21 -6.1 78 78 Calm 30.30 1026 10 16 0.00 0.00
11:53 pm 23:53 Clear 26 -3.3 21 -6.1 81 81 Calm 30.30 1026 10 16 0.00 0.00

Powered by AerisWeather